Location: Deuil
(48.9767°N, 2.3272°E)
Time: 04:03:45
(UTC+00:00)

SWARM C - Pass Details

Date: 24 October 2021
Orbit: 424 x 429 km, 87.3° (Epoch: 05 December)

Event Time Altitude Azimuth Distance (km) Brightness Sun altitude
Rises 18:24:07 0° 179° (S) 2,390 8.3 -17.1°
Reaches altitude 10° 18:26:08 10° 179° (S) 1,529 7.3 -17.4°
Maximum altitude 18:29:27 85° 93° (E) 440 4.4 -18.0°
Drops below altitude 10° 18:32:48 10° 3° (N) 1,546 7.3 -18.5°
Sets 18:34:51 0° 3° (N) 2,419 8.3 -18.9°
